contact:dominique.lefevre@mio.osupytheas.fr, maurice.libes@osupytheas.fr, didier.mallarino@osupytheas.fr
Project:EMSO http://www.emso-fr.org/EMSO-France
Depth: 2436.0 m
Title:EMSO Ligure Ouest : Data MII capteur MICROCAT
DateTime_Computer,Latitude,Longitude,Temperature,Conductivity,Pressure,DateTime_Instrument
DateTime_Computer,Latitude,Longitude,degC,S m-1,dbar,DateTime_Instrument
2023-10-15T00:02:22Z,42.805,6.029,13.3028,4.60092,2470.646,2023-10-15T02:04:47Z
2023-10-15T00:05:25Z,42.805,6.029,13.3027,4.60091,2470.661,2023-10-15T02:07:50Z
2023-10-15T00:08:29Z,42.805,6.029,13.3026,4.60091,2470.67,2023-10-15T02:10:53Z
2023-10-15T00:11:32Z,42.805,6.029,13.3027,4.60092,2470.684,2023-10-15T02:13:56Z
2023-10-15T00:14:35Z,42.805,6.029,13.3026,4.60092,2470.646,2023-10-15T02:16:59Z
2023-10-15T00:17:38Z,42.805,6.029,13.3029,4.60092,2470.67,2023-10-15T02:20:02Z
2023-10-15T00:20:41Z,42.805,6.029,13.3031,4.60091,2470.67,2023-10-15T02:23:05Z
2023-10-15T00:23:44Z,42.805,6.029,13.3026,4.60092,2470.707,2023-10-15T02:26:09Z
2023-10-15T00:26:47Z,42.805,6.029,13.3027,4.60092,2470.67,2023-10-15T02:29:12Z
2023-10-15T00:29:50Z,42.805,6.029,13.3026,4.60092,2470.67,2023-10-15T02:32:15Z
2023-10-15T00:32:53Z,42.805,6.029,13.3026,4.60093,2470.693,2023-10-15T02:35:18Z
2023-10-15T00:35:56Z,42.805,6.029,13.3026,4.60092,2470.717,2023-10-15T02:38:21Z
2023-10-15T00:38:59Z,42.805,6.029,13.3029,4.60092,2470.684,2023-10-15T02:41:24Z
2023-10-15T00:42:02Z,42.805,6.029,13.3023,4.60092,2470.693,2023-10-15T02:44:27Z
2023-10-15T00:45:06Z,42.805,6.029,13.3029,4.60092,2470.67,2023-10-15T02:47:30Z
2023-10-15T00:48:09Z,42.805,6.029,13.3024,4.60095,2470.646,2023-10-15T02:50:33Z
2023-10-15T00:51:12Z,42.805,6.029,13.3026,4.60092,2470.661,2023-10-15T02:53:36Z
2023-10-15T00:54:15Z,42.805,6.029,13.3028,4.60092,2470.67,2023-10-15T02:56:39Z
2023-10-15T00:57:18Z,42.805,6.029,13.3024,4.60091,2470.646,2023-10-15T02:59:42Z
2023-10-15T01:00:21Z,42.805,6.029,13.3026,4.60091,2470.693,2023-10-15T03:02:45Z
2023-10-15T01:03:24Z,42.805,6.029,13.3028,4.60090,2470.646,2023-10-15T03:05:49Z
2023-10-15T01:06:27Z,42.805,6.029,13.3030,4.60092,2470.646,2023-10-15T03:08:52Z
2023-10-15T01:09:30Z,42.805,6.029,13.3022,4.60092,2470.646,2023-10-15T03:11:55Z
2023-10-15T01:12:33Z,42.805,6.029,13.3023,4.60092,2470.67,2023-10-15T03:14:58Z
2023-10-15T01:15:36Z,42.805,6.029,13.3025,4.60092,2470.684,2023-10-15T03:18:01Z
2023-10-15T01:18:39Z,42.805,6.029,13.3026,4.60093,2470.656,2023-10-15T03:21:04Z
2023-10-15T01:21:43Z,42.805,6.029,13.3023,4.60092,2470.67,2023-10-15T03:24:07Z
2023-10-15T01:24:46Z,42.805,6.029,13.3024,4.60092,2470.67,2023-10-15T03:27:10Z
2023-10-15T01:27:49Z,42.805,6.029,13.3023,4.60092,2470.684,2023-10-15T03:30:13Z
2023-10-15T01:30:52Z,42.805,6.029,13.3026,4.60091,2470.684,2023-10-15T03:33:16Z
2023-10-15T01:33:55Z,42.805,6.029,13.3026,4.60092,2470.661,2023-10-15T03:36:19Z
2023-10-15T01:36:58Z,42.805,6.029,13.3026,4.60091,2470.646,2023-10-15T03:39:23Z
2023-10-15T01:40:01Z,42.805,6.029,13.3024,4.60091,2470.646,2023-10-15T03:42:26Z
2023-10-15T01:43:04Z,42.805,6.029,13.3026,4.60092,2470.661,2023-10-15T03:45:29Z
2023-10-15T01:46:07Z,42.805,6.029,13.3028,4.60091,2470.661,2023-10-15T03:48:32Z
2023-10-15T01:49:10Z,42.805,6.029,13.3026,4.60092,2470.67,2023-10-15T03:51:35Z
2023-10-15T01:52:13Z,42.805,6.029,13.3024,4.60091,2470.684,2023-10-15T03:54:38Z
2023-10-15T01:55:16Z,42.805,6.029,13.3021,4.60091,2470.646,2023-10-15T03:57:41Z
2023-10-15T01:58:20Z,42.805,6.029,13.3026,4.60091,2470.707,2023-10-15T04:00:44Z
2023-10-15T02:01:23Z,42.805,6.029,13.3026,4.60092,2470.684,2023-10-15T04:03:47Z
2023-10-15T02:04:26Z,42.805,6.029,13.3027,4.60092,2470.693,2023-10-15T04:06:50Z
2023-10-15T02:07:29Z,42.805,6.029,13.3026,4.60092,2470.684,2023-10-15T04:09:53Z
2023-10-15T02:10:32Z,42.805,6.029,13.3029,4.60092,2470.693,2023-10-15T04:12:56Z
2023-10-15T02:13:35Z,42.805,6.029,13.3026,4.60092,2470.661,2023-10-15T04:15:59Z
2023-10-15T02:16:38Z,42.805,6.029,13.3027,4.60092,2470.684,2023-10-15T04:19:03Z
2023-10-15T02:19:41Z,42.805,6.029,13.3026,4.60092,2470.684,2023-10-15T04:22:06Z
2023-10-15T02:22:44Z,42.805,6.029,13.3027,4.60092,2470.646,2023-10-15T04:25:09Z
2023-10-15T02:25:47Z,42.805,6.029,13.3027,4.60091,2470.661,2023-10-15T04:28:12Z
2023-10-15T02:28:50Z,42.805,6.029,13.3032,4.60092,2470.684,2023-10-15T04:31:15Z
2023-10-15T02:31:53Z,42.805,6.029,13.3028,4.60092,2470.693,2023-10-15T04:34:18Z
2023-10-15T02:34:57Z,42.805,6.029,13.3026,4.60091,2470.67,2023-10-15T04:37:21Z
2023-10-15T02:38:00Z,42.805,6.029,13.3028,4.60092,2470.646,2023-10-15T04:40:24Z
2023-10-15T02:41:03Z,42.805,6.029,13.3029,4.60092,2470.646,2023-10-15T04:43:27Z
2023-10-15T02:44:06Z,42.805,6.029,13.3026,4.60092,2470.661,2023-10-15T04:46:30Z
2023-10-15T02:47:09Z,42.805,6.029,13.3027,4.60093,2470.661,2023-10-15T04:49:33Z
2023-10-15T02:50:12Z,42.805,6.029,13.3023,4.60093,2470.67,2023-10-15T04:52:37Z
2023-10-15T02:53:15Z,42.805,6.029,13.3026,4.60092,2470.661,2023-10-15T04:55:40Z
2023-10-15T02:56:18Z,42.805,6.029,13.3032,4.60092,2470.684,2023-10-15T04:58:43Z
2023-10-15T02:59:21Z,42.805,6.029,13.3026,4.60092,2470.67,2023-10-15T05:01:46Z
2023-10-15T03:02:24Z,42.805,6.029,13.3027,4.60092,2470.67,2023-10-15T05:04:49Z
2023-10-15T03:05:27Z,42.805,6.029,13.3026,4.60092,2470.693,2023-10-15T05:07:52Z
2023-10-15T03:08:31Z,42.805,6.029,13.3025,4.60092,2470.67,2023-10-15T05:10:55Z
2023-10-15T03:11:34Z,42.805,6.029,13.3026,4.60092,2470.679,2023-10-15T05:13:58Z
2023-10-15T03:14:37Z,42.805,6.029,13.3028,4.60091,2470.67,2023-10-15T05:17:01Z
2023-10-15T03:17:40Z,42.805,6.029,13.3024,4.60092,2470.684,2023-10-15T05:20:04Z
2023-10-15T03:20:43Z,42.805,6.029,13.3026,4.60091,2470.67,2023-10-15T05:23:07Z
2023-10-15T03:23:46Z,42.805,6.029,13.3024,4.60092,2470.684,2023-10-15T05:26:10Z
2023-10-15T03:26:49Z,42.805,6.029,13.3027,4.60092,2470.67,2023-10-15T05:29:14Z
2023-10-15T03:29:52Z,42.805,6.029,13.3028,4.60092,2470.707,2023-10-15T05:32:17Z
2023-10-15T03:32:55Z,42.805,6.029,13.3030,4.60092,2470.67,2023-10-15T05:35:20Z
2023-10-15T03:35:58Z,42.805,6.029,13.3026,4.60091,2470.624,2023-10-15T05:38:23Z
2023-10-15T03:39:01Z,42.805,6.029,13.3027,4.60092,2470.684,2023-10-15T05:41:26Z
2023-10-15T03:42:04Z,42.805,6.029,13.3025,4.60093,2470.717,2023-10-15T05:44:29Z
2023-10-15T03:45:07Z,42.805,6.029,13.3029,4.60092,2470.693,2023-10-15T05:47:32Z
2023-10-15T03:48:11Z,42.805,6.029,13.3026,4.60091,2470.707,2023-10-15T05:50:35Z
2023-10-15T03:51:14Z,42.805,6.029,13.3028,4.60092,2470.693,2023-10-15T05:53:38Z
2023-10-15T03:54:17Z,42.805,6.029,13.3024,4.60092,2470.693,2023-10-15T05:56:41Z
2023-10-15T03:57:20Z,42.805,6.029,13.3026,4.60095,2470.679,2023-10-15T05:59:44Z
2023-10-15T04:00:23Z,42.805,6.029,13.3030,4.60092,2470.693,2023-10-15T06:02:47Z
2023-10-15T04:03:26Z,42.805,6.029,13.3028,4.60096,2470.693,2023-10-15T06:05:51Z
2023-10-15T04:06:29Z,42.805,6.029,13.3026,4.60092,2470.717,2023-10-15T06:08:54Z
2023-10-15T04:09:32Z,42.805,6.029,13.3028,4.60092,2470.707,2023-10-15T06:11:57Z
2023-10-15T04:12:35Z,42.805,6.029,13.3027,4.60093,2470.74,2023-10-15T06:15:00Z
2023-10-15T04:15:38Z,42.805,6.029,13.3028,4.60093,2470.693,2023-10-15T06:18:03Z
2023-10-15T04:18:41Z,42.805,6.029,13.3029,4.60093,2470.717,2023-10-15T06:21:06Z
2023-10-15T04:21:44Z,42.805,6.029,13.3026,4.60093,2470.717,2023-10-15T06:24:09Z
2023-10-15T04:24:48Z,42.805,6.029,13.3025,4.60092,2470.717,2023-10-15T06:27:12Z
2023-10-15T04:27:51Z,42.805,6.029,13.3026,4.60092,2470.717,2023-10-15T06:30:15Z
2023-10-15T04:30:54Z,42.805,6.029,13.3026,4.60094,2470.717,2023-10-15T06:33:18Z
2023-10-15T04:33:57Z,42.805,6.029,13.3025,4.60093,2470.717,2023-10-15T06:36:21Z
2023-10-15T04:37:00Z,42.805,6.029,13.3028,4.60092,2470.754,2023-10-15T06:39:24Z
2023-10-15T04:40:03Z,42.805,6.029,13.3029,4.60092,2470.777,2023-10-15T06:42:27Z
2023-10-15T04:43:06Z,42.805,6.029,13.3029,4.60093,2470.763,2023-10-15T06:45:31Z
2023-10-15T04:46:09Z,42.805,6.029,13.3029,4.60092,2470.777,2023-10-15T06:48:34Z
2023-10-15T04:49:12Z,42.805,6.029,13.3027,4.60092,2470.726,2023-10-15T06:51:37Z
2023-10-15T04:52:15Z,42.805,6.029,13.3026,4.60092,2470.74,2023-10-15T06:54:40Z
2023-10-15T04:55:18Z,42.805,6.029,13.3026,4.60093,2470.73,2023-10-15T06:57:43Z
2023-10-15T04:58:21Z,42.805,6.029,13.3028,4.60092,2470.81,2023-10-15T07:00:46Z
2023-10-15T05:01:25Z,42.805,6.029,13.3026,4.60092,2470.763,2023-10-15T07:03:49Z
2023-10-15T05:04:28Z,42.805,6.029,13.3026,4.60092,2470.787,2023-10-15T07:06:52Z
2023-10-15T05:07:31Z,42.805,6.029,13.3031,4.60092,2470.787,2023-10-15T07:09:55Z
2023-10-15T05:10:34Z,42.805,6.029,13.3028,4.60093,2470.763,2023-10-15T07:12:58Z
2023-10-15T05:13:37Z,42.805,6.029,13.3026,4.60092,2470.74,2023-10-15T07:16:01Z
2023-10-15T05:16:40Z,42.805,6.029,13.3029,4.60094,2470.763,2023-10-15T07:19:05Z
2023-10-15T05:19:43Z,42.805,6.029,13.3026,4.60093,2470.8,2023-10-15T07:22:08Z
2023-10-15T05:22:46Z,42.805,6.029,13.3024,4.60092,2470.8,2023-10-15T07:25:11Z
2023-10-15T05:25:49Z,42.805,6.029,13.3027,4.60092,2470.763,2023-10-15T07:28:14Z
2023-10-15T05:28:52Z,42.805,6.029,13.3026,4.60093,2470.763,2023-10-15T07:31:17Z
2023-10-15T05:31:55Z,42.805,6.029,13.3024,4.60093,2470.787,2023-10-15T07:34:20Z
2023-10-15T05:34:58Z,42.805,6.029,13.3029,4.60092,2470.871,2023-10-15T07:37:23Z
2023-10-15T05:38:02Z,42.805,6.029,13.3031,4.60092,2470.787,2023-10-15T07:40:26Z
2023-10-15T05:41:05Z,42.805,6.029,13.3030,4.60093,2470.8,2023-10-15T07:43:29Z
2023-10-15T05:44:08Z,42.805,6.029,13.3026,4.60093,2470.777,2023-10-15T07:46:32Z
2023-10-15T05:47:11Z,42.805,6.029,13.3030,4.60092,2470.847,2023-10-15T07:49:35Z
2023-10-15T05:50:14Z,42.805,6.029,13.3028,4.60093,2470.833,2023-10-15T07:52:38Z
2023-10-15T05:53:17Z,42.805,6.029,13.3029,4.60092,2470.81,2023-10-15T07:55:41Z
2023-10-15T05:56:20Z,42.805,6.029,13.3026,4.60092,2470.81,2023-10-15T07:58:45Z
2023-10-15T05:59:23Z,42.805,6.029,13.3024,4.60092,2470.787,2023-10-15T08:01:48Z
2023-10-15T06:02:26Z,42.805,6.029,13.3029,4.60093,2470.824,2023-10-15T08:04:51Z
2023-10-15T06:05:29Z,42.805,6.029,13.3030,4.60093,2470.787,2023-10-15T08:07:54Z
2023-10-15T06:08:32Z,42.805,6.029,13.3026,4.60092,2470.81,2023-10-15T08:10:57Z
2023-10-15T06:11:35Z,42.805,6.029,13.3027,4.60092,2470.833,2023-10-15T08:14:00Z
2023-10-15T06:14:39Z,42.805,6.029,13.3028,4.60092,2470.857,2023-10-15T08:17:03Z
2023-10-15T06:17:42Z,42.805,6.029,13.3030,4.60093,2470.81,2023-10-15T08:20:06Z
2023-10-15T06:20:45Z,42.805,6.029,13.3024,4.60094,2470.857,2023-10-15T08:23:09Z
2023-10-15T06:23:48Z,42.805,6.029,13.3032,4.60092,2470.82,2023-10-15T08:26:12Z
2023-10-15T06:26:51Z,42.805,6.029,13.3031,4.60093,2470.857,2023-10-15T08:29:15Z
2023-10-15T06:29:54Z,42.805,6.029,13.3027,4.60092,2470.824,2023-10-15T08:32:18Z
2023-10-15T06:32:55Z,42.805,6.029,13.3027,4.60092,2470.81,2023-10-15T08:35:20Z
2023-10-15T06:35:58Z,42.805,6.029,13.3030,4.60093,2470.833,2023-10-15T08:38:23Z
2023-10-15T06:39:01Z,42.805,6.029,13.3028,4.60094,2470.847,2023-10-15T08:41:26Z
2023-10-15T06:42:04Z,42.805,6.029,13.3031,4.60093,2470.833,2023-10-15T08:44:29Z
2023-10-15T06:45:08Z,42.805,6.029,13.3028,4.60092,2470.871,2023-10-15T08:47:32Z
2023-10-15T06:48:11Z,42.805,6.029,13.3027,4.60092,2470.833,2023-10-15T08:50:35Z
2023-10-15T06:51:14Z,42.805,6.029,13.3027,4.60092,2470.857,2023-10-15T08:53:38Z
2023-10-15T06:54:17Z,42.805,6.029,13.3026,4.60092,2470.857,2023-10-15T08:56:41Z
2023-10-15T06:57:20Z,42.805,6.029,13.3027,4.60092,2470.833,2023-10-15T08:59:44Z
2023-10-15T07:00:23Z,42.805,6.029,13.3026,4.60093,2470.833,2023-10-15T09:02:47Z
2023-10-15T07:03:26Z,42.805,6.029,13.3025,4.60092,2470.857,2023-10-15T09:05:51Z
2023-10-15T07:06:29Z,42.805,6.029,13.3027,4.60092,2470.857,2023-10-15T09:08:54Z
2023-10-15T07:09:32Z,42.805,6.029,13.3028,4.60092,2470.857,2023-10-15T09:11:57Z
2023-10-15T07:12:35Z,42.805,6.029,13.3024,4.60092,2470.857,2023-10-15T09:15:00Z
2023-10-15T07:15:38Z,42.805,6.029,13.3026,4.60092,2470.857,2023-10-15T09:18:03Z
2023-10-15T07:18:41Z,42.805,6.029,13.3027,4.60091,2470.847,2023-10-15T09:21:06Z
2023-10-15T07:21:45Z,42.805,6.029,13.3027,4.60092,2470.871,2023-10-15T09:24:09Z
2023-10-15T07:24:48Z,42.805,6.029,13.3029,4.60091,2470.833,2023-10-15T09:27:12Z
2023-10-15T07:27:51Z,42.805,6.029,13.3024,4.60093,2470.871,2023-10-15T09:30:15Z
2023-10-15T07:30:54Z,42.805,6.029,13.3027,4.60093,2470.871,2023-10-15T09:33:18Z
2023-10-15T07:33:57Z,42.805,6.029,13.3023,4.60094,2470.871,2023-10-15T09:36:21Z
2023-10-15T07:37:00Z,42.805,6.029,13.3028,4.60091,2470.847,2023-10-15T09:39:24Z
2023-10-15T07:40:03Z,42.805,6.029,13.3026,4.60093,2470.796,2023-10-15T09:42:28Z
2023-10-15T07:43:06Z,42.805,6.029,13.3028,4.60091,2470.833,2023-10-15T09:45:31Z
2023-10-15T07:46:09Z,42.805,6.029,13.3026,4.60092,2470.833,2023-10-15T09:48:34Z
2023-10-15T07:49:12Z,42.805,6.029,13.3028,4.60092,2470.857,2023-10-15T09:51:37Z
2023-10-15T07:52:15Z,42.805,6.029,13.3025,4.60092,2470.857,2023-10-15T09:54:40Z
2023-10-15T07:55:18Z,42.805,6.029,13.3025,4.60092,2470.88,2023-10-15T09:57:43Z
2023-10-15T07:58:22Z,42.805,6.029,13.3023,4.60091,2470.857,2023-10-15T10:00:46Z
2023-10-15T08:01:25Z,42.805,6.029,13.3024,4.60093,2470.871,2023-10-15T10:03:49Z
2023-10-15T08:04:28Z,42.805,6.029,13.3027,4.60092,2470.871,2023-10-15T10:06:52Z
2023-10-15T08:07:31Z,42.805,6.029,13.3027,4.60092,2470.871,2023-10-15T10:09:55Z
2023-10-15T08:10:34Z,42.805,6.029,13.3021,4.60092,2470.857,2023-10-15T10:12:58Z
2023-10-15T08:13:37Z,42.805,6.029,13.3024,4.60092,2470.88,2023-10-15T10:16:01Z
2023-10-15T08:16:40Z,42.805,6.029,13.3023,4.60092,2470.833,2023-10-15T10:19:05Z
2023-10-15T08:19:43Z,42.805,6.029,13.3022,4.60090,2470.833,2023-10-15T10:22:08Z
2023-10-15T08:22:46Z,42.805,6.029,13.3024,4.60091,2470.81,2023-10-15T10:25:11Z
2023-10-15T08:25:49Z,42.805,6.029,13.3027,4.60092,2470.857,2023-10-15T10:28:14Z
2023-10-15T08:28:52Z,42.805,6.029,13.3026,4.60092,2470.857,2023-10-15T10:31:17Z
2023-10-15T08:31:54Z,42.805,6.029,13.3029,4.60092,2470.833,2023-10-15T10:34:19Z
2023-10-15T08:34:57Z,42.805,6.029,13.3023,4.60091,2470.833,2023-10-15T10:37:22Z
2023-10-15T08:38:00Z,42.805,6.029,13.3022,4.60092,2470.857,2023-10-15T10:40:25Z
2023-10-15T08:41:03Z,42.805,6.029,13.3025,4.60092,2470.871,2023-10-15T10:43:28Z
2023-10-15T08:44:06Z,42.805,6.029,13.3026,4.60091,2470.833,2023-10-15T10:46:31Z
2023-10-15T08:47:10Z,42.805,6.029,13.3027,4.60092,2470.833,2023-10-15T10:49:34Z
2023-10-15T08:50:13Z,42.805,6.029,13.3029,4.60091,2470.833,2023-10-15T10:52:37Z
2023-10-15T08:53:16Z,42.805,6.029,13.3026,4.60090,2470.833,2023-10-15T10:55:40Z
2023-10-15T08:56:19Z,42.805,6.029,13.3026,4.60091,2470.81,2023-10-15T10:58:43Z
2023-10-15T08:59:22Z,42.805,6.029,13.3027,4.60092,2470.847,2023-10-15T11:01:46Z
2023-10-15T09:02:25Z,42.805,6.029,13.3027,4.60091,2470.796,2023-10-15T11:04:49Z
2023-10-15T09:05:28Z,42.805,6.029,13.3026,4.60091,2470.833,2023-10-15T11:07:53Z
2023-10-15T09:08:31Z,42.805,6.029,13.3024,4.60093,2470.833,2023-10-15T11:10:56Z
2023-10-15T09:11:34Z,42.805,6.029,13.3024,4.60093,2470.81,2023-10-15T11:13:59Z
2023-10-15T09:14:37Z,42.805,6.029,13.3023,4.60091,2470.833,2023-10-15T11:17:02Z
2023-10-15T09:17:40Z,42.805,6.029,13.3024,4.60094,2470.847,2023-10-15T11:20:05Z
2023-10-15T09:20:44Z,42.805,6.029,13.3024,4.60091,2470.81,2023-10-15T11:23:08Z
2023-10-15T09:23:47Z,42.805,6.029,13.3028,4.60092,2470.81,2023-10-15T11:26:11Z
2023-10-15T09:26:50Z,42.805,6.029,13.3023,4.60092,2470.81,2023-10-15T11:29:14Z
2023-10-15T09:29:53Z,42.805,6.029,13.3023,4.60090,2470.81,2023-10-15T11:32:17Z
2023-10-15T09:32:56Z,42.805,6.029,13.3029,4.60090,2470.787,2023-10-15T11:35:20Z
2023-10-15T09:35:59Z,42.805,6.029,13.3026,4.60090,2470.81,2023-10-15T11:38:23Z
2023-10-15T09:39:02Z,42.805,6.029,13.3026,4.60092,2470.787,2023-10-15T11:41:27Z
2023-10-15T09:42:05Z,42.805,6.029,13.3027,4.60090,2470.824,2023-10-15T11:44:30Z
2023-10-15T09:45:08Z,42.805,6.029,13.3026,4.60092,2470.787,2023-10-15T11:47:33Z
2023-10-15T09:48:11Z,42.805,6.029,13.3026,4.60092,2470.787,2023-10-15T11:50:36Z
2023-10-15T09:51:14Z,42.805,6.029,13.3031,4.60092,2470.787,2023-10-15T11:53:39Z
2023-10-15T09:54:17Z,42.805,6.029,13.3025,4.60091,2470.787,2023-10-15T11:56:42Z
2023-10-15T09:57:21Z,42.805,6.029,13.3024,4.60091,2470.787,2023-10-15T11:59:45Z
2023-10-15T10:00:24Z,42.805,6.029,13.3026,4.60092,2470.8,2023-10-15T12:02:48Z
2023-10-15T10:03:27Z,42.805,6.029,13.3028,4.60092,2470.8,2023-10-15T12:05:51Z
2023-10-15T10:06:30Z,42.805,6.029,13.3029,4.60092,2470.787,2023-10-15T12:08:54Z
2023-10-15T10:09:33Z,42.805,6.029,13.3026,4.60093,2470.74,2023-10-15T12:11:57Z
2023-10-15T10:12:36Z,42.805,6.029,13.3026,4.60095,2470.773,2023-10-15T12:15:01Z
2023-10-15T10:15:39Z,42.805,6.029,13.3025,4.60093,2470.777,2023-10-15T12:18:04Z
2023-10-15T10:18:42Z,42.805,6.029,13.3028,4.60092,2470.787,2023-10-15T12:21:07Z
2023-10-15T10:21:45Z,42.805,6.029,13.3025,4.60092,2470.763,2023-10-15T12:24:10Z
2023-10-15T10:24:48Z,42.805,6.029,13.3027,4.60092,2470.763,2023-10-15T12:27:13Z
2023-10-15T10:27:51Z,42.805,6.029,13.3026,4.60090,2470.787,2023-10-15T12:30:16Z
2023-10-15T10:30:54Z,42.805,6.029,13.3026,4.60092,2470.763,2023-10-15T12:33:19Z
2023-10-15T10:33:58Z,42.805,6.029,13.3024,4.60092,2470.763,2023-10-15T12:36:22Z
2023-10-15T10:37:01Z,42.805,6.029,13.3026,4.60091,2470.763,2023-10-15T12:39:25Z
2023-10-15T10:40:04Z,42.805,6.029,13.3029,4.60092,2470.777,2023-10-15T12:42:28Z
2023-10-15T10:43:07Z,42.805,6.029,13.3024,4.60092,2470.787,2023-10-15T12:45:31Z
2023-10-15T10:46:10Z,42.805,6.029,13.3027,4.60092,2470.763,2023-10-15T12:48:34Z
2023-10-15T10:49:13Z,42.805,6.029,13.3026,4.60091,2470.74,2023-10-15T12:51:38Z
2023-10-15T10:52:16Z,42.805,6.029,13.3029,4.60091,2470.74,2023-10-15T12:54:41Z
2023-10-15T10:55:19Z,42.805,6.029,13.3028,4.60092,2470.74,2023-10-15T12:57:44Z
2023-10-15T10:58:22Z,42.805,6.029,13.3026,4.60092,2470.754,2023-10-15T13:00:47Z
2023-10-15T11:01:25Z,42.805,6.029,13.3028,4.60092,2470.777,2023-10-15T13:03:50Z
2023-10-15T11:04:28Z,42.805,6.029,13.3025,4.60093,2470.74,2023-10-15T13:06:53Z
2023-10-15T11:07:32Z,42.805,6.029,13.3024,4.60092,2470.74,2023-10-15T13:09:56Z
2023-10-15T11:10:35Z,42.805,6.029,13.3026,4.60093,2470.754,2023-10-15T13:12:59Z
2023-10-15T11:13:38Z,42.805,6.029,13.3026,4.60091,2470.726,2023-10-15T13:16:02Z
2023-10-15T11:16:41Z,42.805,6.029,13.3024,4.60089,2470.763,2023-10-15T13:19:05Z
2023-10-15T11:19:44Z,42.805,6.029,13.3027,4.60090,2470.717,2023-10-15T13:22:08Z
2023-10-15T11:22:47Z,42.805,6.029,13.3027,4.60092,2470.74,2023-10-15T13:25:11Z
2023-10-15T11:25:50Z,42.805,6.029,13.3026,4.60092,2470.73,2023-10-15T13:28:15Z
2023-10-15T11:28:53Z,42.805,6.029,13.3026,4.60093,2470.73,2023-10-15T13:31:18Z
2023-10-15T11:31:56Z,42.805,6.029,13.3026,4.60092,2470.717,2023-10-15T13:34:21Z
2023-10-15T11:34:59Z,42.805,6.029,13.3029,4.60092,2470.754,2023-10-15T13:37:24Z
2023-10-15T11:38:02Z,42.805,6.029,13.3024,4.60091,2470.754,2023-10-15T13:40:27Z
2023-10-15T11:41:05Z,42.805,6.029,13.3025,4.60090,2470.717,2023-10-15T13:43:30Z
2023-10-15T11:44:09Z,42.805,6.029,13.3026,4.60089,2470.74,2023-10-15T13:46:33Z
2023-10-15T11:47:12Z,42.805,6.029,13.3025,4.60092,2470.693,2023-10-15T13:49:36Z
2023-10-15T11:50:15Z,42.805,6.029,13.3026,4.60090,2470.74,2023-10-15T13:52:39Z
2023-10-15T11:53:18Z,42.805,6.029,13.3026,4.60089,2470.693,2023-10-15T13:55:42Z
2023-10-15T11:56:21Z,42.805,6.029,13.3029,4.60089,2470.693,2023-10-15T13:58:45Z
2023-10-15T11:59:24Z,42.805,6.029,13.3028,4.60090,2470.717,2023-10-15T14:01:49Z
2023-10-15T12:02:27Z,42.805,6.029,13.3026,4.60091,2470.703,2023-10-15T14:04:52Z
2023-10-15T12:05:30Z,42.805,6.029,13.3021,4.60090,2470.73,2023-10-15T14:07:55Z
2023-10-15T12:08:33Z,42.805,6.029,13.3024,4.60090,2470.707,2023-10-15T14:10:58Z
2023-10-15T12:11:36Z,42.805,6.029,13.3026,4.60089,2470.693,2023-10-15T14:14:01Z
2023-10-15T12:14:39Z,42.805,6.029,13.3024,4.60090,2470.693,2023-10-15T14:17:04Z
2023-10-15T12:17:42Z,42.805,6.029,13.3023,4.60091,2470.693,2023-10-15T14:20:07Z
2023-10-15T12:20:46Z,42.805,6.029,13.3026,4.60089,2470.693,2023-10-15T14:23:10Z
2023-10-15T12:23:49Z,42.805,6.029,13.3026,4.60090,2470.684,2023-10-15T14:26:13Z
2023-10-15T12:26:52Z,42.805,6.029,13.3022,4.60090,2470.67,2023-10-15T14:29:16Z
2023-10-15T12:29:55Z,42.805,6.029,13.3025,4.60090,2470.717,2023-10-15T14:32:19Z
2023-10-15T12:32:58Z,42.805,6.029,13.3026,4.60090,2470.693,2023-10-15T14:35:22Z
2023-10-15T12:36:01Z,42.805,6.029,13.3024,4.60091,2470.67,2023-10-15T14:38:26Z
2023-10-15T12:39:04Z,42.805,6.029,13.3027,4.60089,2470.73,2023-10-15T14:41:29Z
2023-10-15T12:42:07Z,42.805,6.029,13.3026,4.60091,2470.684,2023-10-15T14:44:32Z
2023-10-15T12:45:10Z,42.805,6.029,13.3023,4.60090,2470.67,2023-10-15T14:47:35Z
2023-10-15T12:48:13Z,42.805,6.029,13.3022,4.60090,2470.707,2023-10-15T14:50:38Z
2023-10-15T12:51:16Z,42.805,6.029,13.3026,4.60090,2470.717,2023-10-15T14:53:41Z
2023-10-15T12:54:20Z,42.805,6.029,13.3021,4.60089,2470.693,2023-10-15T14:56:44Z
2023-10-15T12:57:23Z,42.805,6.029,13.3024,4.60090,2470.67,2023-10-15T14:59:47Z
2023-10-15T13:00:26Z,42.805,6.029,13.3027,4.60090,2470.684,2023-10-15T15:02:50Z
2023-10-15T13:03:29Z,42.805,6.029,13.3027,4.60089,2470.67,2023-10-15T15:05:53Z
2023-10-15T13:06:32Z,42.805,6.029,13.3024,4.60091,2470.693,2023-10-15T15:08:56Z
2023-10-15T13:09:35Z,42.805,6.029,13.3029,4.60090,2470.67,2023-10-15T15:12:00Z
2023-10-15T13:12:38Z,42.805,6.029,13.3026,4.60090,2470.693,2023-10-15T15:15:03Z
2023-10-15T13:15:41Z,42.805,6.029,13.3026,4.60089,2470.693,2023-10-15T15:18:06Z
2023-10-15T13:18:44Z,42.805,6.029,13.3026,4.60092,2470.67,2023-10-15T15:21:09Z
2023-10-15T13:21:47Z,42.805,6.029,13.3026,4.60092,2470.693,2023-10-15T15:24:12Z
2023-10-15T13:24:50Z,42.805,6.029,13.3027,4.60090,2470.646,2023-10-15T15:27:15Z
2023-10-15T13:27:54Z,42.805,6.029,13.3025,4.60091,2470.646,2023-10-15T15:30:18Z
2023-10-15T13:30:57Z,42.805,6.029,13.3029,4.60090,2470.67,2023-10-15T15:33:21Z
2023-10-15T13:34:00Z,42.805,6.029,13.3024,4.60092,2470.646,2023-10-15T15:36:24Z
2023-10-15T13:37:03Z,42.805,6.029,13.3024,4.60090,2470.646,2023-10-15T15:39:27Z
2023-10-15T13:40:06Z,42.805,6.029,13.3024,4.60091,2470.693,2023-10-15T15:42:30Z
2023-10-15T13:43:09Z,42.805,6.029,13.3026,4.60092,2470.684,2023-10-15T15:45:33Z
2023-10-15T13:46:12Z,42.805,6.029,13.3024,4.60091,2470.67,2023-10-15T15:48:37Z
2023-10-15T13:49:15Z,42.805,6.029,13.3028,4.60094,2470.646,2023-10-15T15:51:40Z
2023-10-15T13:52:18Z,42.805,6.029,13.3026,4.60091,2470.684,2023-10-15T15:54:43Z
2023-10-15T13:55:21Z,42.805,6.029,13.3025,4.60091,2470.693,2023-10-15T15:57:46Z
2023-10-15T13:58:24Z,42.805,6.029,13.3026,4.60091,2470.661,2023-10-15T16:00:49Z
2023-10-15T14:01:27Z,42.805,6.029,13.3027,4.60091,2470.624,2023-10-15T16:03:52Z
2023-10-15T14:04:31Z,42.805,6.029,13.3026,4.60092,2470.67,2023-10-15T16:06:55Z
2023-10-15T14:07:34Z,42.805,6.029,13.3029,4.60091,2470.684,2023-10-15T16:09:58Z
2023-10-15T14:10:37Z,42.805,6.029,13.3027,4.60091,2470.67,2023-10-15T16:13:01Z
2023-10-15T14:13:40Z,42.805,6.029,13.3022,4.60092,2470.661,2023-10-15T16:16:04Z
2023-10-15T14:16:43Z,42.805,6.029,13.3024,4.60092,2470.67,2023-10-15T16:19:07Z
2023-10-15T14:19:46Z,42.805,6.029,13.3023,4.60091,2470.684,2023-10-15T16:22:11Z
2023-10-15T14:22:49Z,42.805,6.029,13.3031,4.60091,2470.693,2023-10-15T16:25:14Z
2023-10-15T14:25:52Z,42.805,6.029,13.3028,4.60091,2470.684,2023-10-15T16:28:17Z
2023-10-15T14:28:55Z,42.805,6.029,13.3029,4.60091,2470.707,2023-10-15T16:31:20Z
2023-10-15T14:31:58Z,42.805,6.029,13.3023,4.60092,2470.661,2023-10-15T16:34:23Z
2023-10-15T14:35:01Z,42.805,6.029,13.3023,4.60092,2470.661,2023-10-15T16:37:26Z
2023-10-15T14:38:04Z,42.805,6.029,13.3023,4.60090,2470.67,2023-10-15T16:40:29Z
2023-10-15T14:41:08Z,42.805,6.029,13.3026,4.60093,2470.67,2023-10-15T16:43:32Z
2023-10-15T14:44:11Z,42.805,6.029,13.3030,4.60092,2470.661,2023-10-15T16:46:35Z
2023-10-15T14:47:14Z,42.805,6.029,13.3026,4.60090,2470.693,2023-10-15T16:49:38Z
2023-10-15T14:50:17Z,42.805,6.029,13.3025,4.60092,2470.661,2023-10-15T16:52:41Z
2023-10-15T14:53:20Z,42.805,6.029,13.3026,4.60092,2470.693,2023-10-15T16:55:44Z
2023-10-15T14:56:23Z,42.805,6.029,13.3026,4.60092,2470.646,2023-10-15T16:58:48Z
2023-10-15T14:59:26Z,42.805,6.029,13.3024,4.60092,2470.646,2023-10-15T17:01:51Z
2023-10-15T15:02:29Z,42.805,6.029,13.3024,4.60091,2470.67,2023-10-15T17:04:54Z